Regional Weather Roundup
Issued by NWS

Home | Current Version | Previous Version | Graphics & Text | Print | Product List | Glossary Off
Versions: 1 2 3 4 5 6 7 8 9 10 11 12 13 14 15 16 17 18 19 20 21 22 23 24 25 26 27 28 29 30 31 32 33 34 35 36 37 38 39 40 41 42 43 44 45 46 47 48 49 50

000
ASUS43 KMKX 210311
RWRWI

WISCONSIN REGIONAL WEATHER ROUNDUP
NATIONAL WEATHER SERVICE MILWAUKEE/SULLIVAN WI
1000 PM CDT THU JUL 20 2017

NOTE: "FAIR" INDICATES FEW OR NO CLOUDS BELOW 12,000 FEET WITH NO
SIGNIFICANT WEATHER AND/OR OBSTRUCTIONS TO VISIBILITY.

WIZ001-002-006>008-014>016-023>028-210400-
NORTHWEST WISCONSIN

CITY           SKY/WX    TMP DP  RH WIND       PRES   REMARKS
SUPERIOR ARPT  NOT AVBL
ASHLAND        CLEAR     68  63  84 SW6       29.96R
HAYWARD        CLEAR     67  64  90 CALM      29.99R
SIREN          CLEAR     69  67  92 CALM      29.98S
CUMBERLAND     CLEAR     68  64  88 CALM      30.00S
RICE LAKE      CLEAR     70  67  92 CALM      30.01R
CHETEK           N/A     69  67  94 CALM      30.00R
LADYSMITH      CLEAR     70  65  82 CALM      30.02R
EAU CLAIRE     CLEAR     71  69  93 CALM      29.97S
MENOMONIE      CLEAR     72  70  93 CALM      29.98S
NEW RICHMOND   CLEAR     72  69  92 CALM      29.99S
OSCEOLA        CLEAR     69  69 100 CALM      30.00S
$$

WIZ003>005-009-010-017-018-210400-
NORTH CENTRAL WISCONSIN

CITY           SKY/WX    TMP DP  RH WIND       PRES   REMARKS
MANITOWISH WTR CLEAR     62  62 100 CALM      30.01R
ARBOR VITAE    CLEAR     65  61  87 CALM      30.01R
WOODRUFF       CLEAR     65  61  87 CALM      30.01R
RHINELANDER    CLEAR     62  61  96 W3        30.02R
EAGLE RIVER    CLEAR     62  57  85 CALM      30.01R
LAND O LAKES   CLEAR     60  58  92 CALM      30.02R
PHILLIPS       CLEAR     65  64  94 CALM      30.00S
TOMAHAWK         N/A     62  60  91 CALM      30.01S
MEDFORD        CLEAR     69  65  88 CALM      30.01R
MERRILL        CLEAR     67  65  91 CALM      30.00R
$$

WIZ029-030-035-036-043>047-210400-
CENTRAL WISCONSIN

CITY           SKY/WX    TMP DP  RH WIND       PRES   REMARKS
WAUSAU         CLEAR     73  66  78 CALM      29.98R
MOSINEE        CLEAR     72  66  83 NW3       30.00S
MARSHFIELD     CLEAR     69  64  84 NW5       29.99R
STEVENS POINT  CLEAR     67  65  94 CALM      29.99R
WAUPACA        CLEAR     73  69  86 CALM      29.97S
WAUTOMA        CLEAR     71  68  90 CALM      29.97S
WISC RAPIDS    CLEAR     68  66  93 CALM      29.99S
CAMP DOUGLAS   CLEAR     70  69  98 N5        29.97S
$$

WIZ011>013-019>022-031-037>040-048>050-210400-
NORTHEAST WISCONSIN

CITY           SKY/WX    TMP DP  RH WIND       PRES   REMARKS
ANTIGO         CLEAR     69  62  76 NW5       30.01R
SHAWANO        CLEAR     72  65  77 CALM      29.95F
OCONTO         CLEAR     70  67  90 CALM      29.93S
STURGEON BAY     N/A     71  68  90 S5        29.94F
GREEN BAY      CLEAR     72  70  93 CALM      29.95S
MANITOWOC      CLEAR     72  67  84 CALM      29.96S
APPLETON       MOCLDY    72  63  73 VRB5      29.95S
CLINTONVILLE   CLEAR     72  63  73 CALM      29.95F
OSHKOSH        CLEAR     74  68  81 SW5       29.96S
$$

WIZ032>034-041-042-053>061-210400-
SOUTHWEST WISCONSIN

CITY           SKY/WX    TMP DP  RH WIND       PRES   REMARKS
LA CROSSE      CLEAR     74  70  87 CALM      29.96R
SPARTA         CLEAR     67  67  99 CALM      29.98S
VIROQUA        CLEAR     71  71  98 CALM      30.01R
BOSCOBEL       CLEAR     72  70  93 CALM      29.98R
PRAIRIE DU CHI CLEAR     73  71  91 E3        29.98R
PLATTEVILLE    CLEAR     75  75  99 NE3       30.00R
$$

WIZ056-057-062-063-064-067-068-210400-
SOUTH CENTRAL WISCONSIN

CITY           SKY/WX    TMP DP  RH WIND       PRES   REMARKS
REEDSBURG      CLEAR     72  72 100 CALM      29.98R
BARABOO/DELLS  CLEAR     70  68  92 CALM      29.99R
LONE ROCK      CLEAR     72  70  93 SW5       29.98R
MINERAL POINT  CLOUDY    77  72  83 CALM      30.01R
MADISON        CLOUDY    74  69  85 CALM      29.97S
MIDDLETON      CLOUDY    73  73 100 NE3       29.98F
WATERTOWN      CLOUDY    75  71  89 CALM      29.97S
MONROE         CLOUDY    77  70  78 CALM      29.99R
JANESVILLE     CLOUDY    77  75  94 CALM      29.96S
$$

WIZ051-052-058>065-066-070>072-210400-
SOUTHEAST WISCONSIN

CITY           SKY/WX    TMP DP  RH WIND       PRES   REMARKS
MILWAUKEE      PTCLDY    76  70  82 CALM      29.96F
WAUKESHA       NOT AVBL
MILWAUKEE/TIMM CLOUDY    75  68  78 S5        29.98S
RACINE         CLEAR     72  69  90 SW5       29.98F
KENOSHA        CLEAR     72  68  87 S3        29.97F
FOND DU LAC    CLEAR     71  67  87 CALM      29.97S
SHEBOYGAN      PTCLDY    71  71 100 S3        29.96S
WEST BEND      PTCLDY    72  70  94 CALM      29.98R
JUNEAU         MOCLDY    72  67  85 CALM      29.99R
$$

LSZ147-162-210400-
LAKE SUPERIOR

STATION/POSITION TIME  TEMP    WIND        PRES    WAVE
                       AIR SEA DIR/SP/G            HT/PER
                 (UTC) (F)     (DEG/KT/KT) (MB)    (FT/S)
W MID LAKE BUOY  0250   58 48  260/  8/  8 1013.7R   1
DEVILS ISLAND    0200   70     240/  9/ 11 1013.3R
SAXON HARBOR     0230   71     200/  5/  6 1013.5R
$$

LMZ867-665-643>646-210400-
LAKE MICHIGAN

STATION/POSITION TIME  TEMP    WIND        PRES    WAVE
                       AIR SEA DIR/SP/G            HT/PER
                 (UTC) (F)     (DEG/KT/KT) (MB)    (FT/S)
CHAMBERS ISLAND  0230   77     280/  6/  8 1012.9R
S GREEN BAY BUOY 0300   77 74  250/  6/  6 1013.5
N MID LAKE BUOY  0250   68 65  160/  4/  6 1014.5R   1/ 5
NORTHPORT PIER   0240   71     320/  3/  5 1013.5R
KEWAUNEE LAKESHO 0248   70     160/  1/  2 1013.6R
SHEBOYGAN LAKESH 0300   72     180/  7/  7 1014.0S
PORT WASHINGTON  0240   72     220/  2/  5 1015.6S
ATWATER BUOY     0109   71 70  160/ 10/ 12 1014.6F
MILWAUKEE LAKESH 0250   72     180/  2/  3   N/A
S MID LAKE BUOY  0150   72 72  210/  4/  4 1014.6R   1/ 4
KENOSHA   LAKESH 0300   75     210/  4/  4 1014.6
$$

TC  - TEMPERATURE IN CELSIUS
VSB - VISIBILITY IN STATUTE MILES
WCI - WIND CHILL INDEX
HX  - HEAT INDEX





USA.gov is the U.S. government's official web portal to all federal, state and local government web resources and services.